Date String (YYYY-MM-DD hh:mm:ss) UTC,Instrument flags,absolute air pressure of the measurement (hPa),sample flow rate (lpm),inlet stack bypass flow (lpm),air temperature of the measurement (°C),ambient temperature measured by the external sensor (°C),aerosol sample conditioner tube jacket temperature (°C),OPC LED temperature (°C),internal box temperature (°C),relative humidity of the measurement (%),span deviation,mass concentration of particles derived from Lorenz-Mie calculation of OPC scattering (μg/m³),mass concentration of particles derived from Lorenz-Mie calculation of OPC scattering (μg/m³),mass concentration of particles derived from Lorenz-Mie calculation of OPC scattering (μg/m³)
DateTimeUTC,F1_M11,P_M11,Q1_M11,Q2_M11,T1_M11,T2_M11,T3_M11,T4_M11,T5_M11,U1_M11,ZSPAN_M11,X0_M11,X2_M11,X1_M11
2023-06-06 03:00:00,SystemResetWarning,0833.8,5.00,000.00,029.3,027.6,000.0,038.0,030.5,29.3,0000.0,0007.11,0003.48,0002.84
2023-06-06 03:01:00,SystemResetWarning,0833.8,5.00,000.00,029.2,027.6,000.0,038.0,030.5,29.4,0000.0,0006.29,0003.45,0002.82
2023-06-06 03:02:00,SystemResetWarning,0833.8,4.99,000.00,029.2,027.6,000.0,038.0,030.5,29.5,0000.0,0005.93,0003.38,0002.81
2023-06-06 03:03:00,SystemResetWarning,0833.8,5.00,000.00,029.2,027.6,000.0,038.0,030.4,29.6,0000.0,0006.01,0003.38,0002.83
2023-06-06 03:04:00,SystemResetWarning,0833.8,5.00,000.00,029.2,027.5,000.0,038.0,030.4,29.6,0000.0,0007.06,0003.44,0002.88
2023-06-06 03:05:00,SystemResetWarning,0833.8,5.00,000.00,029.2,027.5,000.0,037.9,030.4,29.7,0000.0,0007.34,0003.49,0002.92
2023-06-06 03:06:00,SystemResetWarning,0833.8,5.00,000.00,029.2,027.5,000.0,037.9,030.4,29.7,0000.0,0007.33,0003.53,0002.97
2023-06-06 03:07:00,SystemResetWarning,0833.8,5.00,000.00,029.2,027.5,000.0,037.9,030.4,29.8,0000.0,0007.27,0003.55,0003.02
2023-06-06 03:08:00,SystemResetWarning,0833.8,4.99,000.00,029.2,027.5,000.0,037.9,030.4,29.9,0000.0,0007.02,0003.56,0003.06
2023-06-06 03:09:00,SystemResetWarning,0833.9,4.99,000.00,029.1,027.5,000.0,037.9,030.4,29.9,0000.0,0007.13,0003.58,0003.10
2023-06-06 03:10:00,SystemResetWarning,0833.9,4.99,000.00,029.1,027.5,000.0,037.9,030.4,30.0,0000.0,0007.39,0003.67,0003.13
2023-06-06 03:11:00,SystemResetWarning,0833.8,5.00,000.00,029.1,027.5,000.0,037.9,030.4,30.1,0000.0,0007.49,0003.75,0003.16
2023-06-06 03:12:00,SystemResetWarning,0833.8,5.01,000.00,029.1,027.5,000.0,037.9,030.4,30.2,0000.0,0007.74,0003.83,0003.19
2023-06-06 03:13:00,SystemResetWarning,0833.8,5.00,000.00,029.1,027.5,000.0,037.9,030.4,30.3,0000.0,0008.02,0003.87,0003.21
2023-06-06 03:14:00,SystemResetWarning,0833.9,5.00,000.00,029.1,027.5,000.0,037.9,030.4,30.2,0000.0,0008.11,0003.94,0003.24
2023-06-06 03:15:00,SystemResetWarning,0833.8,5.00,000.00,029.1,027.5,000.0,037.8,030.4,30.3,0000.0,0007.83,0003.98,0003.26
2023-06-06 03:16:00,SystemResetWarning,0833.8,4.99,000.00,029.1,027.5,000.0,037.8,030.4,30.3,0000.0,0007.79,0004.02,0003.29
2023-06-06 03:17:00,SystemResetWarning,0833.8,5.00,000.00,029.1,027.5,000.0,037.8,030.4,30.3,0000.0,0007.88,0004.07,0003.31
2023-06-06 03:18:00,SystemResetWarning,0833.9,5.01,000.00,029.1,027.5,000.0,037.8,030.5,30.3,0000.0,0007.99,0004.07,0003.33
2023-06-06 03:19:00,SystemResetWarning,0833.9,5.01,000.00,029.1,027.5,000.0,037.8,030.4,30.4,0000.0,0008.07,0004.09,0003.34
2023-06-06 03:20:00,SystemResetWarning,0833.9,5.00,000.00,029.1,027.5,000.0,037.8,030.4,30.5,0000.0,0008.15,0004.12,0003.36
2023-06-06 03:21:00,SystemResetWarning,0833.9,5.00,000.00,029.1,027.5,000.0,037.8,030.4,30.5,0000.0,0008.12,0004.10,0003.37
2023-06-06 03:22:00,SystemResetWarning,0833.8,5.00,000.00,029.1,027.5,000.0,037.8,030.4,30.5,0000.0,0008.08,0004.07,0003.38
2023-06-06 03:23:00,SystemResetWarning,0833.8,5.00,000.00,029.1,027.5,000.0,037.8,030.4,30.5,0000.0,0007.91,0004.03,0003.40
2023-06-06 03:24:00,SystemResetWarning,0833.9,5.00,000.00,029.1,027.5,000.0,037.8,030.4,30.5,0000.0,0007.81,0004.05,0003.41
2023-06-06 03:25:00,SystemResetWarning,0833.8,5.00,000.00,029.1,027.5,000.0,037.8,030.4,30.6,0000.0,0007.83,0004.07,0003.43
2023-06-06 03:26:00,SystemResetWarning,0833.8,5.00,000.00,029.1,027.5,000.0,037.8,030.4,30.6,0000.0,0007.80,0004.06,0003.43
2023-06-06 03:27:00,SystemResetWarning,0833.8,5.00,000.00,029.1,027.5,000.0,037.8,030.4,30.6,0000.0,0007.73,0004.06,0003.44
2023-06-06 03:28:00,SystemResetWarning,0833.8,5.00,000.00,029.1,027.5,000.0,037.8,030.4,30.7,0000.0,0007.77,0004.10,0003.46
2023-06-06 03:29:00,SystemResetWarning,0833.7,5.00,000.00,029.1,027.5,000.0,037.8,030.4,30.6,0000.0,0007.73,0004.12,0003.46
2023-06-06 03:30:00,SystemResetWarning,0833.8,5.00,000.00,029.1,027.5,000.0,037.8,030.4,30.7,0000.0,0007.74,0004.15,0003.49
2023-06-06 03:31:00,SystemResetWarning,0833.8,5.01,000.00,029.1,027.5,000.0,037.8,030.4,30.7,0000.0,0007.82,0004.17,0003.49
2023-06-06 03:32:00,SystemResetWarning,0833.8,5.00,000.00,029.1,027.5,000.0,037.7,030.4,30.8,0000.0,0008.09,0004.20,0003.50
2023-06-06 03:33:00,SystemResetWarning,0833.8,5.00,000.00,029.1,027.6,000.0,037.7,030.4,30.8,0000.0,0008.08,0004.21,0003.52
2023-06-06 03:34:00,SystemResetWarning,0833.8,5.00,000.00,029.1,027.5,000.0,037.7,030.4,30.8,0000.0,0008.79,0004.24,0003.52
2023-06-06 03:35:00,SystemResetWarning,0833.8,5.00,000.00,029.1,027.6,000.0,037.7,030.4,30.8,0000.0,0008.92,0004.23,0003.53
2023-06-06 03:36:00,SystemResetWarning,0833.8,5.00,000.00,029.1,027.6,000.0,037.7,030.4,30.9,0000.0,0008.85,0004.22,0003.54
2023-06-06 03:37:00,SystemResetWarning,0833.8,5.00,000.00,029.1,027.6,000.0,037.7,030.4,30.9,0000.0,0008.85,0004.24,0003.56
2023-06-06 03:38:00,SystemResetWarning,0833.8,4.99,000.00,029.1,027.6,000.0,037.7,030.4,30.9,0000.0,0008.84,0004.24,0003.57
2023-06-06 03:39:00,SystemResetWarning,0833.8,4.99,000.00,029.1,027.6,000.0,037.7,030.4,30.9,0000.0,0008.71,0004.20,0003.57
2023-06-06 03:40:00,SystemResetWarning,0833.8,5.00,000.00,029.1,027.6,000.0,037.7,030.4,30.9,0000.0,0008.72,0004.22,0003.58
2023-06-06 03:41:00,SystemResetWarning,0833.8,5.01,000.00,029.1,027.6,000.0,037.7,030.4,31.0,0000.0,0008.99,0004.23,0003.58
2023-06-06 03:42:00,SystemResetWarning,0833.8,5.00,000.00,029.1,027.6,000.0,037.7,030.5,31.0,0000.0,0009.07,0004.25,0003.59
2023-06-06 03:43:00,SystemResetWarning,0833.8,5.00,000.00,029.1,027.6,000.0,037.7,030.5,31.1,0000.0,0008.89,0004.26,0003.60
2023-06-06 03:44:00,SystemResetWarning,0833.8,5.00,000.00,029.1,027.6,000.0,037.7,030.5,31.2,0000.0,0008.90,0004.27,0003.61
2023-06-06 03:45:00,SystemResetWarning,0833.8,4.99,000.00,029.1,027.6,000.0,037.7,030.5,31.3,0000.0,0008.35,0004.29,0003.63
2023-06-06 03:46:00,SystemResetWarning,0833.8,5.00,000.00,029.1,027.6,000.0,037.7,030.5,31.4,0000.0,0008.96,0004.37,0003.66
2023-06-06 03:47:00,SystemResetWarning,0833.8,5.00,000.00,029.1,027.6,000.0,037.7,030.5,31.5,0000.0,0010.04,0004.55,0003.70
2023-06-06 03:48:00,SystemResetWarning,0833.7,5.00,000.00,029.1,027.6,000.0,037.7,030.5,31.5,0000.0,0010.54,0004.70,0003.73
2023-06-06 03:49:00,SystemResetWarning,0833.8,5.00,000.00,029.1,027.6,000.0,037.7,030.5,31.5,0000.0,0010.98,0004.81,0003.75
2023-06-06 03:50:00,SystemResetWarning,0833.7,5.00,000.00,029.1,027.6,000.0,037.7,030.5,31.6,0000.0,0011.29,0004.88,0003.78
2023-06-06 03:51:00,SystemResetWarning,0833.8,5.01,000.00,029.1,027.6,000.0,037.7,030.5,31.6,0000.0,0011.56,0004.93,0003.80
2023-06-06 03:52:00,SystemResetWarning,0833.8,5.00,000.00,029.1,027.6,000.0,037.7,030.5,31.6,0000.0,0011.52,0005.03,0003.83
2023-06-06 03:53:00,SystemResetWarning,0833.8,5.00,000.00,029.1,027.6,000.0,037.7,030.5,31.6,0000.0,0011.63,0005.12,0003.86
2023-06-06 03:54:00,SystemResetWarning,0833.8,5.01,000.00,029.1,027.6,000.0,037.7,030.5,31.6,0000.0,0011.91,0005.20,0003.89
2023-06-06 03:55:00,SystemResetWarning,0833.8,5.00,000.00,029.1,027.6,000.0,037.7,030.5,31.6,0000.0,0012.34,0005.32,0003.93
2023-06-06 03:56:00,SystemResetWarning,0833.8,4.99,000.00,029.1,027.7,000.0,037.7,030.5,31.6,0000.0,0013.14,0005.45,0003.96
2023-06-06 03:57:00,SystemResetWarning,0833.8,5.00,000.00,029.1,027.7,000.0,037.8,030.5,31.6,0000.0,0013.32,0005.56,0003.97
2023-06-06 03:58:00,SystemResetWarning,0833.8,5.00,000.00,029.1,027.7,000.0,037.7,030.5,31.7,0000.0,0013.10,0005.56,0003.97
2023-06-06 03:59:00,SystemResetWarning,0833.8,5.00,000.00,029.2,027.7,000.0,037.8,030.6,31.7,0000.0,0013.65,0005.56,0003.97
